[[{"header":{"parameterUnit":"m.s-1","parameterCategory":1,"la1":30.2991,"la2":30.254,"lo1":-89.0895,"lo2":-89.0444,"dy":0.0017,"dx":0.0017,"nx":28,"ny":28,"refTime":"2024-02-03T09:00:00:Z","depth":0,"parameterNumber":2,"parameterNumberName":"U-component_of_WINDS"},"data":[0,0,0,0,0,0,0,0,0,0,0,0,0,0,0,0,0,0,0,0,0,0,0,0,0,0,0,0,0,0,0,0,0,0,0,0,0,0,0,0,0,0,0,0,0,0,0,0,0,0,0,0,0,0,0,0,0,0,0.5469,0.5469,0,0.5512,0.5513,0.5513,0.5536,0.5537,0.5537,0.5537,0.5582,0.5583,0.5584,0,0,0,0,0,0,0,0,0,0,0,0,0,0.5407,0.5408,0.5469,0.5469,0.547,0.5512,0.5513,0.5513,0.5536,0.5537,0.5537,0.5537,0.5582,0.5583,0.5584,0,0,0,0,0,0,0,0,0,0,0,0,0,0.544,0.5408,0.5469,0.5486,0.5488,0.5512,0.5513,0.5513,0.5536,0.5537,0.5537,0.5537,0.5581,0.5583,0.5585,0.5594,0,0,0.559,0.5591,0,0,0,0,0,0,0,0,0.5439,0.5443,0.5483,0.5485,0.5488,0.5519,0.5508,0.554,0.5536,0.5518,0.5537,0.5537,0.5561,0.5564,0.5572,0.5596,0.5598,0.559,0.5591,0.5592,0.5592,0,0,0,0,0,0,0,0.5436,0.5441,0.5486,0.5484,0.5486,0.5493,0.5498,0.5514,0.5539,0.552,0.5522,0.5526,0.5562,0.5571,0.5574,0.5599,0.559,0.5591,0.5593,0.5593,0.5633,0.5633,0,0,0,0,0,0,0.5431,0.5439,0.5485,0.5487,0.5463,0.5494,0.5499,0.5509,0.5539,0.5543,0.5526,0.5527,0.5568,0.5572,0.5575,0.5588,0.5592,0.5593,0.5594,0.5633,0.5633,0.5633,0,0,0,0,0,0,0.5429,0.5435,0.5483,0.5464,0.547,0.5495,0.5505,0.551,0.5518,0.5543,0.5548,0.553,0.5568,0.5573,0.5589,0.559,0.5594,0.5596,0.5633,0.5633,0.5633,0.5615,0,0,0,0,0,0,0.5428,0.5434,0.5437,0.5463,0.5471,0.5495,0.5506,0.551,0.5521,0.5523,0.5548,0.5553,0.5568,0.5586,0.5591,0.5593,0.5597,0.5633,0.5633,0.5633,0.5615,0.5614,0.5613,0,0,0,0,0,0.5425,0.5431,0.5438,0.5443,0.5476,0.5495,0.55,0.5517,0.5521,0.5525,0.5541,0.5552,0.559,0.5588,0.5593,0.5596,0.5633,0.5633,0.5633,0.5616,0.5614,0.5613,0,0,0,0,0,0,0.5404,0.5434,0.5442,0.5456,0.5473,0.5499,0.5505,0.5515,0.5531,0.5532,0.5554,0.5559,0.5574,0.5586,0.5584,0.5607,0.5612,0.5613,0.5598,0.5596,0.5595,0.5592,0.5599,0,0,0,0,0,0.5401,0.5414,0.544,0.545,0.5458,0.548,0.5489,0.5501,0.552,0.5527,0.5544,0.5562,0.5578,0.5588,0.5604,0.5617,0.5623,0.5622,0.5621,0.562,0.562,0.5628,0.5628,0.5633,0.5633,0.5633,0,0,0.5395,0.5413,0.542,0.5446,0.5461,0.5474,0.5486,0.5499,0.551,0.5529,0.5545,0.5559,0.558,0.5595,0.5603,0.5606,0.562,0.562,0.5618,0.562,0.5628,0.5628,0.5628,0.5633,0.5633,0.5633,0,0,0.5391,0.5406,0.5416,0.543,0.5452,0.5466,0.5469,0.5494,0.5503,0.552,0.5535,0.5548,0.5575,0.5589,0.56,0.5602,0.5613,0.5607,0.5601,0.5609,0.5609,0.5608,0.5609,0.5609,0.5608,0.5608,0.5608,0,0.538,0.5401,0.5419,0.5432,0.5444,0.5462,0.5472,0.5486,0.5511,0.5519,0.5523,0.5557,0.5573,0.5591,0.5592,0.56,0.5604,0.5604,0.5607,0.5607,0.5607,0.5608,0.5608,0.5607,0.5607,0.5607,0.5607,0,0.5387,0.5401,0.5407,0.5431,0.5443,0.5455,0.5476,0.5486,0.5497,0.5511,0.5528,0.5548,0.5568,0.5574,0.5585,0.5594,0.5596,0.5603,0.5609,0.5606,0.5607,0.5607,0.5606,0.5606,0.5606,0.5606,0,0,0.537,0.5405,0.5407,0.5418,0.5444,0.5456,0.5468,0.5488,0.5496,0.5514,0.5525,0.5548,0.5555,0.5568,0.5581,0.5588,0.5588,0.5594,0.5595,0.5592,0.56,0.5594,0.5594,0.5596,0.5596,0.5596,0.5598,0,0.5369,0.5392,0.541,0.5427,0.544,0.5458,0.547,0.5487,0.5501,0.5515,0.553,0.5546,0.5554,0.5562,0.557,0.5586,0.559,0.5587,0.5607,0.5607,0.56,0.5595,0.5589,0.559,0.5599,0.5599,0.5599,0,0.5371,0.5388,0.5406,0.5431,0.5437,0.5447,0.5467,0.548,0.55,0.551,0.5524,0.5538,0.5552,0.5558,0.5578,0.5576,0.5585,0.5595,0.5595,0.5598,0.5603,0.5597,0.5591,0.5591,0.56,0.56,0.56,0,0.5356,0.5384,0.5398,0.5408,0.5437,0.5443,0.5456,0.5477,0.5488,0.5505,0.5513,0.5532,0.5542,0.5557,0.5576,0.5578,0.5595,0.5601,0.5604,0.5603,0.5606,0.5605,0.5601,0.5612,0.5612,0.5612,0.5612,0,0.5353,0.5363,0.5392,0.5401,0.5413,0.5434,0.5446,0.546,0.5478,0.549,0.5508,0.5519,0.5543,0.5557,0.5572,0.5587,0.5592,0.56,0.5604,0.5599,0.5598,0.5605,0.5605,0.5612,0.5612,0.5612,0.5612,0,0.5338,0.5358,0.5375,0.5402,0.5409,0.5417,0.544,0.545,0.5465,0.548,0.5485,0.5509,0.5527,0.5547,0.5572,0.5582,0.5596,0.5602,0.5589,0.5591,0.5592,0.5592,0.5592,0.5593,0.5604,0.5604,0.5603,0,0.5335,0.5343,0.5371,0.5381,0.5393,0.5408,0.5419,0.544,0.5452,0.5476,0.5483,0.5502,0.5518,0.5546,0.5566,0.5585,0.5591,0.559,0.5594,0.5588,0.5591,0.559,0.5591,0.5588,0.5588,0.5588,0.5588,0,0.5326,0.5336,0.5352,0.5371,0.5384,0.5401,0.5418,0.5424,0.5449,0.5461,0.5479,0.5492,0.5517,0.5536,0.5558,0.5572,0.5584,0.5587,0.5588,0.5582,0.5575,0.5579,0.5586,0.5586,0.5586,0.5587,0.5587,0.5587,0.5317,0.5326,0.5347,0.5364,0.5379,0.5395,0.5405,0.5422,0.5438,0.546,0.5472,0.549,0.5511,0.5541,0.5555,0.557,0.5574,0.5576,0.5576,0.5576,0.5575,0.5573,0.5574,0.5574,0.5574,0.5574,0.5574,0,0.5309,0.5324,0.534,0.5363,0.5377,0.5388,0.5407,0.5418,0.5434,0.5453,0.5468,0.549,0.5509,0.553,0.5551,0.5558,0.5565,0.5563,0.5562,0.5565,0.557,0.5567,0.5558,0.5558,0.5558,0.5558,0.5558,0.5558,0.5307,0.5322,0.5334,0.5357,0.5372,0.539,0.5401,0.5415,0.543,0.5454,0.5469,0.5483,0.5503,0.5525,0.5543,0.5549,0.5556,0.5552,0.556,0.5564,0.5565,0.5566,0.5563,0.5554,0.5554,0.5554,0.5554,0.5554]},{"header":{"parameterUnit":"m.s-1","parameterCategory":1,"la1":30.2991,"la2":30.254,"lo1":-89.0895,"lo2":-89.0444,"dy":0.0017,"dx":0.0017,"nx":28,"ny":28,"refTime":"2024-02-03T09:00:00:Z","depth":0,"parameterNumber":3,"parameterNumberName":"V-component_of_WINDS"},"data":[0,0,0,0,0,0,0,0,0,0,0,0,0,0,0,0,0,0,0,0,0,0,0,0,0,0,0,0,0,0,0,0,0,0,0,0,0,0,0,0,0,0,0,0,0,0,0,0,0,0,0,0,0,0,0,0,0,0,-1.1815,-1.1815,0,-1.1774,-1.1774,-1.1773,-1.17,-1.1699,-1.1697,-1.1696,-1.1656,-1.1657,-1.1657,0,0,0,0,0,0,0,0,0,0,0,0,0,-1.1832,-1.1832,-1.1815,-1.1815,-1.1814,-1.1774,-1.1774,-1.1773,-1.17,-1.1699,-1.1697,-1.1695,-1.1656,-1.1657,-1.1657,0,0,0,0,0,0,0,0,0,0,0,0,0,-1.1811,-1.1832,-1.1815,-1.1773,-1.1769,-1.1774,-1.1774,-1.1773,-1.1701,-1.1699,-1.1696,-1.1695,-1.1656,-1.1657,-1.1657,-1.1702,0,0,-1.1658,-1.1658,0,0,0,0,0,0,0,0,-1.1812,-1.1811,-1.178,-1.1776,-1.1771,-1.174,-1.1765,-1.1749,-1.1701,-1.1727,-1.1696,-1.1693,-1.1686,-1.1684,-1.1681,-1.17,-1.1698,-1.1658,-1.1659,-1.1659,-1.1659,0,0,0,0,0,0,0,-1.1814,-1.1812,-1.1799,-1.1779,-1.1774,-1.1756,-1.1751,-1.1762,-1.1719,-1.1724,-1.1719,-1.1715,-1.1683,-1.1681,-1.168,-1.1697,-1.1658,-1.1659,-1.1659,-1.1659,-1.1751,-1.1753,0,0,0,0,0,0,-1.1821,-1.1814,-1.18,-1.1798,-1.1787,-1.1758,-1.1752,-1.1752,-1.1718,-1.1711,-1.1717,-1.1712,-1.1681,-1.1679,-1.1678,-1.1728,-1.1659,-1.1659,-1.1659,-1.1749,-1.1751,-1.1754,0,0,0,0,0,0,-1.1822,-1.1821,-1.1802,-1.1804,-1.18,-1.176,-1.1761,-1.1752,-1.175,-1.1713,-1.1705,-1.1722,-1.1679,-1.1677,-1.1696,-1.1725,-1.1659,-1.166,-1.1746,-1.1749,-1.1752,-1.1828,0,0,0,0,0,0,-1.1823,-1.1821,-1.1837,-1.1805,-1.1801,-1.182,-1.1762,-1.1753,-1.175,-1.1743,-1.1715,-1.1709,-1.1678,-1.1696,-1.1697,-1.1725,-1.166,-1.1743,-1.1748,-1.1751,-1.1823,-1.1834,-1.1843,0,0,0,0,0,-1.1823,-1.1861,-1.1839,-1.1837,-1.182,-1.1822,-1.182,-1.1782,-1.1753,-1.1769,-1.1745,-1.171,-1.1722,-1.1698,-1.1698,-1.1727,-1.1741,-1.1746,-1.1751,-1.1818,-1.1831,-1.1843,0,0,0,0,0,0,-1.1899,-1.1856,-1.1831,-1.1859,-1.1845,-1.181,-1.1829,-1.1798,-1.1792,-1.1786,-1.1741,-1.1735,-1.176,-1.1745,-1.172,-1.1769,-1.1726,-1.1731,-1.1777,-1.1789,-1.1799,-1.1802,-1.166,0,0,0,0,0,-1.1918,-1.1923,-1.1886,-1.1914,-1.1908,-1.187,-1.187,-1.1842,-1.1826,-1.182,-1.1798,-1.1784,-1.1785,-1.1786,-1.1785,-1.182,-1.1813,-1.184,-1.185,-1.1859,-1.1864,-1.1882,-1.1893,-1.177,-1.177,-1.177,0,0,-1.1959,-1.1936,-1.1942,-1.1929,-1.1914,-1.1921,-1.1866,-1.1875,-1.188,-1.1822,-1.1838,-1.1821,-1.1803,-1.183,-1.1841,-1.1819,-1.1896,-1.1865,-1.1872,-1.1872,-1.1888,-1.19,-1.191,-1.1773,-1.1773,-1.1772,0,0,-1.2037,-1.202,-1.2042,-1.2029,-1.2008,-1.1982,-1.1988,-1.1957,-1.1944,-1.1959,-1.1916,-1.1921,-1.1923,-1.1912,-1.1907,-1.1981,-1.1948,-1.1981,-1.2034,-1.2052,-1.2061,-1.207,-1.2096,-1.2107,-1.1987,-1.1987,-1.1987,0,-1.2091,-1.2099,-1.2057,-1.2069,-1.2065,-1.2012,-1.2034,-1.2023,-1.2003,-1.2002,-1.1977,-1.1978,-1.1962,-1.1986,-1.2004,-1.2002,-1.2007,-1.1984,-1.2063,-1.2071,-1.2079,-1.2103,-1.2114,-1.1991,-1.1991,-1.199,-1.199,0,-1.2166,-1.2172,-1.2192,-1.2173,-1.2171,-1.2188,-1.215,-1.2153,-1.2125,-1.2103,-1.2119,-1.2098,-1.2092,-1.2095,-1.2069,-1.2116,-1.2103,-1.2071,-1.2028,-1.2095,-1.2118,-1.2127,-1.1997,-1.1996,-1.1994,-1.1993,0,0,-1.229,-1.2248,-1.2256,-1.2247,-1.222,-1.2224,-1.2239,-1.2232,-1.2235,-1.2224,-1.2235,-1.2238,-1.2209,-1.2203,-1.2175,-1.2191,-1.2251,-1.2157,-1.2156,-1.2176,-1.2302,-1.2326,-1.2337,-1.2229,-1.2231,-1.2232,-1.2303,0,-1.2362,-1.2385,-1.2348,-1.2379,-1.2385,-1.2334,-1.2347,-1.2333,-1.2312,-1.2314,-1.2291,-1.2294,-1.2255,-1.2251,-1.2264,-1.2241,-1.2276,-1.2235,-1.224,-1.2241,-1.2246,-1.2349,-1.2374,-1.2443,-1.2312,-1.2313,-1.2314,0,-1.245,-1.2442,-1.2473,-1.2444,-1.2445,-1.2457,-1.2448,-1.245,-1.2433,-1.2416,-1.241,-1.2377,-1.239,-1.2347,-1.2365,-1.2339,-1.2338,-1.2327,-1.2329,-1.2328,-1.2282,-1.2351,-1.2464,-1.2474,-1.2328,-1.2327,-1.2326,0,-1.2538,-1.2534,-1.2553,-1.2547,-1.2513,-1.2523,-1.251,-1.249,-1.2488,-1.248,-1.2478,-1.2473,-1.2469,-1.2466,-1.2432,-1.2404,-1.2454,-1.2409,-1.2442,-1.2443,-1.2455,-1.2455,-1.2569,-1.2455,-1.2454,-1.2454,-1.2454,0,-1.2622,-1.2644,-1.2592,-1.2603,-1.2626,-1.2584,-1.2607,-1.2589,-1.2572,-1.2579,-1.2536,-1.2544,-1.2499,-1.2502,-1.2476,-1.2495,-1.2494,-1.2481,-1.2474,-1.2485,-1.2487,-1.2485,-1.248,-1.2457,-1.2456,-1.2456,-1.2455,0,-1.2724,-1.269,-1.2707,-1.2674,-1.2666,-1.2684,-1.2656,-1.2666,-1.2642,-1.2652,-1.2652,-1.2615,-1.2617,-1.2583,-1.2578,-1.256,-1.2591,-1.2575,-1.2597,-1.2592,-1.2627,-1.2624,-1.2744,-1.2758,-1.2634,-1.2636,-1.2637,0,-1.2781,-1.2796,-1.2764,-1.2766,-1.2754,-1.2758,-1.2755,-1.2714,-1.2714,-1.2695,-1.2707,-1.2705,-1.2701,-1.2706,-1.268,-1.2676,-1.266,-1.2702,-1.2659,-1.267,-1.2661,-1.2661,-1.2662,-1.2711,-1.2713,-1.2714,-1.2715,0,-1.2885,-1.2867,-1.2865,-1.2857,-1.2856,-1.2848,-1.2837,-1.2841,-1.2796,-1.2798,-1.2799,-1.2796,-1.2791,-1.279,-1.2781,-1.2767,-1.2735,-1.2729,-1.2736,-1.2748,-1.276,-1.2754,-1.2622,-1.2726,-1.2725,-1.2724,-1.2724,-1.2723,-1.2966,-1.2977,-1.2956,-1.2956,-1.2943,-1.2934,-1.2941,-1.2918,-1.2918,-1.291,-1.2886,-1.2891,-1.2874,-1.2858,-1.2848,-1.2852,-1.2831,-1.2842,-1.2844,-1.2848,-1.2854,-1.2759,-1.285,-1.2849,-1.2849,-1.2849,-1.2849,0,-1.3068,-1.3052,-1.3052,-1.3038,-1.3037,-1.3005,-1.2992,-1.2994,-1.2999,-1.2984,-1.2981,-1.2983,-1.2981,-1.2954,-1.295,-1.2958,-1.2943,-1.2958,-1.2958,-1.2955,-1.2873,-1.2867,-1.2971,-1.2971,-1.2971,-1.2971,-1.2971,-1.2971,-1.3121,-1.3138,-1.3118,-1.3129,-1.3113,-1.3117,-1.3112,-1.3104,-1.3092,-1.3095,-1.3094,-1.3076,-1.3057,-1.305,-1.3048,-1.304,-1.3041,-1.3062,-1.3049,-1.2973,-1.2961,-1.295,-1.2944,-1.3062,-1.3062,-1.313,-1.3131,-1.3132]}]]